Regional Weather Roundup
Issued by NWS

Current Version | Previous Version | Text Only | Print | Product List | Glossary On
Versions: 1 2 3 4 5 6 7 8 9 10 11 12 13 14 15 16 17 18 19 20 21 22 23 24 25 26 27 28 29 30 31 32 33 34 35 36 37 38 39 40 41 42 43 44 45 46 47 48 49 50
598
ASUS45 KPSR 232210
RWRAZ

ARIZONA HOURLY REGIONAL WEATHER ROUNDUP
NATIONAL WEATHER SERVICE PHOENIX AZ
300 PM MST WED MAY 23 2018

NOTE: FAIR INDICATES FEW OR NO CLOUDS BELOW 12,000 FEET WITH NO
SIGNIFICANT WEATHER AND/OR OBSTRUCTIONS TO VISIBILITY.

AZZ001>003-036-232300-
NORTHWEST ARIZONA

CITY           SKY/WX    TMP DP  RH WIND       PRES   REMARKS
BULLHEAD CITY  SUNNY     93  30  10 SW12      29.80F
KINGMAN        SUNNY     83  24  11 SW10G20   29.95F
$$

AZZ004>008-015-016-018-232300-
NORTH CENTRAL ARIZONA

CITY           SKY/WX    TMP DP  RH WIND       PRES   REMARKS
GRAND CANYON   SUNNY     72  18  13 W6G24     30.10F
WILLIAMS       SUNNY     72  21  15 SW13G21   30.10S
PRESCOTT       SUNNY     76  24  14 SW12G21   30.02F
FLAGSTAFF      SUNNY     68  21  16 S14G24    30.13F
PAGE           SUNNY     82  21  10 VRB7      29.94F
$$

AZZ009>014-017-232300-
NORTHEAST ARIZONA

CITY           SKY/WX    TMP DP  RH WIND       PRES   REMARKS
WINSLOW        SUNNY     85  22  10 W12G21    29.97F
SAINT JOHNS    SUNNY     84  16   8 W16G32    29.98F
WINDOW ROCK    SUNNY     78  11   8 S14G28    30.09F
SHOW LOW       SUNNY     77  18  10 SW23G30   30.09F
$$

AZZ540-542>544-546-548-232300-
GREATER PHOENIX AREA

CITY           SKY/WX    TMP DP  RH WIND       PRES   REMARKS
PHOENIX        SUNNY     94  29  10 S12G17    29.82F
BUCKEYE        SUNNY     90  32  12 SW14      29.85F
GLENDALE       SUNNY     91  32  12 S9        29.85F
DEER VALLEY    SUNNY     89  25  10 S12       29.84F
SCOTTSDALE     SUNNY     90  31  12 CALM      29.86F
MESA-FALCON    SUNNY     91  34  13 W8        29.85F
MESA-GATEWAY   SUNNY     91  28  10 SW12      29.85F
CHANDLER       SUNNY     91  28  10 SW8       29.84F
$$

AZZ539-553-232300-
SOUTHWEST MARICOPA COUNTY AND PINAL COUNTY

CITY           SKY/WX    TMP DP  RH WIND       PRES   REMARKS
CASA GRANDE    SUNNY     91  28  10 S13       29.84
GILA BEND      SUNNY     92  27  10 W7        29.81F
$$

AZZ503-504-507>509-232300-
SOUTHEAST ARIZONA

CITY           SKY/WX    TMP DP  RH WIND       PRES   REMARKS
TUCSON         SUNNY     91  22   8 MISG      29.89F
DAVIS-MONTHAN  SUNNY     94  24   8 W7        29.88
NOGALES        SUNNY     89  25  10 S16G23    29.98F
SIERRA VISTA   SUNNY     86  20   9 SW17G24   30.02
DOUGLAS        SUNNY     88  22   9 SW16      29.98F
SAFFORD        SUNNY     92  24   8 S14G20    29.88F
$$

AZZ532-232300-
SOUTHWEST ARIZONA

CITY           SKY/WX    TMP DP  RH WIND       PRES   REMARKS
YUMA           SUNNY     90  41  18 SW12G17   29.82F
$$

CAZ041-043-047-048-061-525>527-560>570-232300-
SOUTHERN CALIFORNIA

CITY           SKY/WX    TMP DP  RH WIND       PRES   REMARKS
DOWNTOWN L.A.  CLOUDY    68  55  63 VRB3      29.96F
L.A. AIRPORT   MOSUNNY   66  54  65 W13       29.97F
SAN DIEGO      PTSUNNY   66  55  67 NW10      29.99S
BURBANK        MOSUNNY   68  54  60 VRB3      29.95F
ONTARIO        MOSUNNY   72  52  49 W8        29.94F
RIVERSIDE      SUNNY     71  52  50 W8        29.94F
PALM SPRINGS   SUNNY     91  44  19 NE7       29.84F
EL CENTRO NAS  MOSUNNY   90  45  21 E6        29.81F
IMPERIAL       SUNNY     90  46  21 MISG      29.80F
BLYTHE         SUNNY     91  39  16 VRB6      29.81F
NEEDLES        SUNNY     95  25   8 E9        29.81F
$$

NVZ020-UTZ003-232300-
SOUTHERN NEVADA-UTAH

CITY           SKY/WX    TMP DP  RH WIND       PRES   REMARKS
LAS VEGAS      MOSUNNY   90  31  12 VRB7      29.84F
SALT LAKE CITY PTSUNNY   63  52  67 N13       29.94F
$$

NMZ009-TXZ055-232300-
NEW MEXICO-WEST TEXAS

CITY           SKY/WX    TMP DP  RH WIND       PRES   REMARKS
ALBUQUERQUE    MOSUNNY   84  21  10 SW17G25   30.02F
EL PASO        MOSUNNY   93  23   8 SW15      29.95F
$$


........................KEY........................
SKY/WX - SKY CONDITION/WEATHER
TMP    - TEMPERATURE IN FAHRENHEIT
DP     - DEW POINT IN FAHRENHEIT
RH     - RELATIVE HUMIDITY IN PERCENT
WIND   - DIRECTION AND SPEED IN MILES PER HOUR (MPH)
VRB    - VARIABLE WIND DIRECTION
PRES   - MEAN SEA LEVEL PRESSURE IN INCHES OF MERCURY
         F - FALLING PRESSURE   R - RISING PRESSURE
         S - STEADY PRESSURE
VSB    - VISIBILITY IN MILES
HX     - HEAT INDEX IN FAHRENHEIT
WCI    - WIND CHILL INDEX IN FAHRENHEIT
TC     - TEMPERATURE IN CELSIUS WHICH IS ALSO KNOWN AS
         TEMPERATURE IN CENTIGRADE
AFB    - AIR FORCE BASE
         LUKE AFB IS LUKE AIR FORCE BASE
         DAVIS-MONTHAN IS DAVIS-MONTHAN AIR FORCE BASE
NAS    - NAVAL AIR STATION
         EL CENTRO NAS IS EL CENTRO NAVAL AIR STATION
N/A    - NOT AVAILABLE





USA.gov is the U.S. government's official web portal to all federal, state and local government web resources and services.